Time,TemperatureF,DewpointF,PressureIn,WindDirection,WindDirectionDegrees,WindSpeedMPH,WindSpeedGustMPH,Humidity,HourlyPrecipIn,Conditions,Clouds,dailyrainin,SoftwareType,DateUTC
2013-04-01 08:40:00,58.6,48.9,30.12,North,5,3.0,4.0,70,0.00,,---,0.00,VWS V12.07,2013-04-01 15:40:00,
2013-04-01 08:45:00,58.6,48.5,30.12,North,355,0.0,5.0,69,0.00,,---,0.00,VWS V12.07,2013-04-01 15:45:00,
2013-04-01 08:50:00,58.4,48.3,30.12,NNW,329,4.0,8.0,69,0.00,,---,0.00,VWS V12.07,2013-04-01 15:50:00,
2013-04-01 08:55:00,58.6,48.5,30.12,NNW,340,1.0,2.0,69,0.00,,---,0.00,VWS V12.07,2013-04-01 15:55:00,
2013-04-01 09:00:00,59.5,48.5,30.12,NNW,327,0.0,4.0,67,0.00,,---,0.00,VWS V12.07,2013-04-01 16:00:00,
2013-04-01 09:05:00,59.5,48.2,30.12,NNE,22,5.0,6.0,66,0.00,,---,0.00,VWS V12.07,2013-04-01 16:05:00,
2013-04-01 09:15:00,60.1,48.3,30.13,ESE,110,3.0,5.0,65,0.00,,---,0.00,VWS V12.07,2013-04-01 16:15:00,
2013-04-01 09:20:00,61.2,48.1,30.13,NW,325,0.0,7.0,62,0.00,,---,0.00,VWS V12.07,2013-04-01 16:20:00,
2013-04-01 09:25:00,61.2,48.1,30.13,WNW,282,3.0,5.0,62,0.00,,---,0.00,VWS V12.07,2013-04-01 16:25:00,
2013-04-01 09:30:00,60.2,46.7,30.13,North,355,4.0,4.0,61,0.00,,---,0.00,VWS V12.07,2013-04-01 16:30:00,
2013-04-01 09:35:00,60.4,47.3,30.13,NNW,339,2.0,2.0,62,0.00,,---,0.00,VWS V12.07,2013-04-01 16:35:00,
2013-04-01 09:45:00,62.1,47.2,30.12,North,360,6.0,7.0,58,0.00,,---,0.00,VWS V12.07,2013-04-01 16:45:00,
2013-04-01 09:50:00,62.1,46.2,30.12,NW,313,1.0,6.0,56,0.00,,---,0.00,VWS V12.07,2013-04-01 16:50:00,
2013-04-01 09:55:00,61.5,46.6,30.12,NNE,13,4.0,8.0,58,0.00,,---,0.00,VWS V12.07,2013-04-01 16:55:00,
2013-04-01 10:00:00,61.0,46.6,30.12,NW,312,0.0,6.0,59,0.00,,---,0.00,VWS V12.07,2013-04-01 17:00:00,
2013-04-01 10:05:00,61.8,47.8,30.12,NW,312,1.0,3.0,60,0.00,,---,0.00,VWS V12.07,2013-04-01 17:05:00,
2013-04-01 10:10:00,62.3,47.3,30.12,NW,313,0.0,3.0,58,0.00,,---,0.00,VWS V12.07,2013-04-01 17:10:00,
2013-04-01 10:20:00,64.0,47.5,30.12,SSW,209,0.0,1.0,55,0.00,,---,0.00,VWS V12.07,2013-04-01 17:20:00,
2013-04-01 10:25:00,63.1,46.2,30.12,ESE,107,1.0,7.0,54,0.00,,---,0.00,VWS V12.07,2013-04-01 17:25:00,
2013-04-01 10:30:00,62.6,45.7,30.12,SE,128,0.0,8.0,54,0.00,,---,0.00,VWS V12.07,2013-04-01 17:30:00,
2013-04-01 10:40:00,64.0,46.5,30.12,North,355,5.0,6.0,53,0.00,,---,0.00,VWS V12.07,2013-04-01 17:40:00,
2013-04-01 10:50:00,64.0,47.0,30.12,NW,321,5.0,6.0,54,0.00,,---,0.00,VWS V12.07,2013-04-01 17:50:00,
2013-04-01 10:55:00,63.9,47.4,30.12,South,174,0.0,4.0,55,0.00,,---,0.00,VWS V12.07,2013-04-01 17:55:00,
2013-04-01 11:05:00,64.2,47.2,30.12,ENE,70,0.0,1.0,54,0.00,,---,0.00,VWS V12.07,2013-04-01 18:05:00,
2013-04-01 11:15:00,64.7,49.1,30.12,WNW,283,5.0,5.0,57,0.00,,---,0.00,VWS V12.07,2013-04-01 18:15:00,
2013-04-01 11:20:00,66.1,50.0,30.12,WSW,254,0.0,5.0,56,0.00,,---,0.00,VWS V12.07,2013-04-01 18:20:00,
2013-04-01 11:25:00,65.8,48.7,30.12,North,5,7.0,9.0,54,0.00,,---,0.00,VWS V12.07,2013-04-01 18:25:00,
2013-04-01 11:35:00,64.5,49.9,30.12,West,273,5.0,8.0,59,0.00,,---,0.00,VWS V12.07,2013-04-01 18:35:00,
2013-04-01 11:45:00,63.9,49.3,30.12,NW,306,1.0,5.0,59,0.00,,---,0.00,VWS V12.07,2013-04-01 18:45:00,
2013-04-01 11:50:00,64.8,50.2,30.12,WSW,254,3.0,5.0,59,0.00,,---,0.00,VWS V12.07,2013-04-01 18:50:00,
2013-04-01 11:55:00,64.3,49.2,30.12,NW,323,5.0,7.0,58,0.00,,---,0.00,VWS V12.07,2013-04-01 18:55:00,
2013-04-01 12:05:00,66.1,50.0,30.12,SW,217,1.0,4.0,56,0.00,,---,0.00,VWS V12.07,2013-04-01 19:05:00,
2013-04-01 12:15:00,66.1,48.5,30.12,NNW,333,7.0,15.0,53,0.00,,---,0.00,VWS V12.07,2013-04-01 19:15:00,
2013-04-01 12:20:00,65.6,49.0,30.12,NW,313,8.0,8.0,55,0.00,,---,0.00,VWS V12.07,2013-04-01 19:20:00,
2013-04-01 12:25:00,65.3,48.2,30.12,NW,310,4.0,7.0,54,0.00,,---,0.00,VWS V12.07,2013-04-01 19:25:00,
2013-04-01 12:35:00,66.8,48.1,30.12,WSW,250,1.0,8.0,51,0.00,,---,0.00,VWS V12.07,2013-04-01 19:35:00,
2013-04-01 12:45:00,66.6,48.4,30.11,WNW,290,4.0,10.0,52,0.00,,---,0.00,VWS V12.07,2013-04-01 19:45:00,
2013-04-01 12:55:00,67.1,48.4,30.10,NW,323,2.0,7.0,51,0.00,,---,0.00,VWS V12.07,2013-04-01 19:55:00,
2013-04-01 13:00:00,67.6,48.8,30.10,WSW,256,5.0,7.0,51,0.00,,---,0.00,VWS V12.07,2013-04-01 20:00:00,
2013-04-01 13:10:00,66.8,48.6,30.10,NNE,19,11.0,15.0,52,0.00,,---,0.00,VWS V12.07,2013-04-01 20:10:00,
2013-04-01 13:15:00,66.8,48.6,30.10,NNE,12,1.0,11.0,52,0.00,,---,0.00,VWS V12.07,2013-04-01 20:15:00,
2013-04-01 13:20:00,66.8,48.6,30.10,North,355,4.0,9.0,52,0.00,,---,0.00,VWS V12.07,2013-04-01 20:20:00,
2013-04-01 13:30:00,66.9,49.2,30.10,NW,326,8.0,8.0,53,0.00,,---,0.00,VWS V12.07,2013-04-01 20:30:00,
2013-04-01 13:35:00,67.4,49.2,30.10,WNW,298,5.0,9.0,52,0.00,,---,0.00,VWS V12.07,2013-04-01 20:35:00,
2013-04-01 13:45:00,67.8,48.5,30.09,NNE,33,8.0,9.0,50,0.00,,---,0.00,VWS V12.07,2013-04-01 20:45:00,
2013-04-01 13:50:00,67.8,48.5,30.09,NW,313,11.0,16.0,50,0.00,,---,0.00,VWS V12.07,2013-04-01 20:50:00,
2013-04-01 14:00:00,66.4,47.7,30.09,NW,325,8.0,10.0,51,0.00,,---,0.00,VWS V12.07,2013-04-01 21:00:00,
2013-04-01 14:05:00,67.1,47.9,30.09,North,360,9.0,15.0,50,0.00,,---,0.00,VWS V12.07,2013-04-01 21:05:00,
2013-04-01 14:10:00,67.4,48.7,30.08,NNE,22,9.0,10.0,51,0.00,,---,0.00,VWS V12.07,2013-04-01 21:10:00,
2013-04-01 14:15:00,67.1,49.4,30.08,WNW,295,11.0,13.0,53,0.00,,---,0.00,VWS V12.07,2013-04-01 21:15:00,
2013-04-01 14:20:00,66.4,48.3,30.08,NNW,335,8.0,13.0,52,0.00,,---,0.00,VWS V12.07,2013-04-01 21:20:00,
2013-04-01 14:25:00,66.6,49.0,30.08,NW,309,7.0,11.0,53,0.00,,---,0.00,VWS V12.07,2013-04-01 21:25:00,
2013-04-01 14:35:00,66.8,47.6,30.08,NW,309,11.0,12.0,50,0.00,,---,0.00,VWS V12.07,2013-04-01 21:35:00,
2013-04-01 14:40:00,67.1,48.4,30.08,NNE,18,7.0,9.0,51,0.00,,---,0.00,VWS V12.07,2013-04-01 21:40:00,
2013-04-01 14:45:00,67.3,48.0,30.08,NNE,20,10.0,12.0,50,0.00,,---,0.00,VWS V12.07,2013-04-01 21:45:00,
2013-04-01 14:55:00,66.0,47.9,30.08,North,5,7.0,12.0,52,0.00,,---,0.00,VWS V12.07,2013-04-01 21:55:00,
2013-04-01 15:00:00,66.6,47.4,30.08,NNE,28,9.0,12.0,50,0.00,,---,0.00,VWS V12.07,2013-04-01 22:00:00,
2013-04-01 15:05:00,66.1,48.0,30.08,WNW,300,8.0,14.0,52,0.00,,---,0.00,VWS V12.07,2013-04-01 22:05:00,
2013-04-01 15:10:00,66.1,48.5,30.07,NNW,340,10.0,13.0,53,0.00,,---,0.00,VWS V12.07,2013-04-01 22:10:00,
2013-04-01 15:15:00,65.8,48.7,30.07,NNE,12,19.0,19.0,54,0.00,,---,0.00,VWS V12.07,2013-04-01 22:15:00,
2013-04-01 15:20:00,65.3,47.8,30.07,NW,325,11.0,13.0,53,0.00,,---,0.00,VWS V12.07,2013-04-01 22:20:00,
2013-04-01 15:30:00,65.3,48.2,30.07,WNW,293,7.0,14.0,54,0.00,,---,0.00,VWS V12.07,2013-04-01 22:30:00,
2013-04-01 15:35:00,65.3,48.2,30.07,NW,323,8.0,15.0,54,0.00,,---,0.00,VWS V12.07,2013-04-01 22:35:00,
2013-04-01 15:40:00,65.3,48.2,30.07,NNE,30,5.0,11.0,54,0.00,,---,0.00,VWS V12.07,2013-04-01 22:40:00,
2013-04-01 15:45:00,65.3,48.2,30.07,North,5,13.0,13.0,54,0.00,,---,0.00,VWS V12.07,2013-04-01 22:45:00,
2013-04-01 15:55:00,65.6,49.5,30.06,NW,315,8.0,9.0,56,0.00,,---,0.00,VWS V12.07,2013-04-01 22:55:00,
2013-04-01 16:00:00,65.8,48.7,30.06,NNE,17,6.0,18.0,54,0.00,,---,0.00,VWS V12.07,2013-04-01 23:00:00,
2013-04-01 16:05:00,65.5,48.9,30.06,NNE,30,8.0,10.0,55,0.00,,---,0.00,VWS V12.07,2013-04-01 23:05:00,
2013-04-01 16:10:00,65.3,49.2,30.06,North,360,6.0,13.0,56,0.00,,---,0.00,VWS V12.07,2013-04-01 23:10:00,
2013-04-01 16:20:00,65.2,49.1,30.06,NNW,329,5.0,14.0,56,0.00,,---,0.00,VWS V12.07,2013-04-01 23:20:00,
2013-04-01 16:25:00,65.2,49.6,30.06,West,280,5.0,13.0,57,0.00,,---,0.00,VWS V12.07,2013-04-01 23:25:00,
2013-04-01 16:30:00,65.2,50.1,30.06,NW,305,9.0,11.0,58,0.00,,---,0.00,VWS V12.07,2013-04-01 23:30:00,
2013-04-01 16:35:00,65.2,50.1,30.06,NW,322,8.0,12.0,58,0.00,,---,0.00,VWS V12.07,2013-04-01 23:35:00,
2013-04-01 16:40:00,65.2,50.1,30.05,NNE,18,6.0,12.0,58,0.00,,---,0.00,VWS V12.07,2013-04-01 23:40:00,
2013-04-01 16:45:00,64.8,49.7,30.05,WNW,300,15.0,15.0,58,0.00,,---,0.00,VWS V12.07,2013-04-01 23:45:00,
2013-04-01 16:55:00,64.3,50.1,30.05,NNW,346,9.0,12.0,60,0.00,,---,0.00,VWS V12.07,2013-04-01 23:55:00,
2013-04-01 17:05:00,63.7,50.5,30.05,North,5,5.0,10.0,62,0.00,,---,0.00,VWS V12.07,2013-04-02 00:05:00,
2013-04-01 17:15:00,63.4,50.2,30.05,North,355,7.0,13.0,62,0.00,,---,0.00,VWS V12.07,2013-04-02 00:15:00,
2013-04-01 17:20:00,63.4,50.2,30.05,NNW,335,6.0,12.0,62,0.00,,---,0.00,VWS V12.07,2013-04-02 00:20:00,
2013-04-01 17:25:00,63.4,51.0,30.05,NNE,32,10.0,18.0,64,0.00,,---,0.00,VWS V12.07,2013-04-02 00:25:00,
2013-04-01 17:30:00,62.7,50.4,30.05,NNW,342,12.0,12.0,64,0.00,,---,0.00,VWS V12.07,2013-04-02 00:30:00,
2013-04-01 17:40:00,62.1,51.0,30.05,North,360,1.0,8.0,67,0.00,,---,0.00,VWS V12.07,2013-04-02 00:40:00,
2013-04-01 17:45:00,62.3,51.2,30.05,North,360,8.0,12.0,67,0.00,,---,0.00,VWS V12.07,2013-04-02 00:45:00,
2013-04-01 17:50:00,62.1,51.4,30.05,North,351,5.0,12.0,68,0.00,,---,0.00,VWS V12.07,2013-04-02 00:50:00,
2013-04-01 17:55:00,61.8,51.1,30.06,NNW,345,9.0,12.0,68,0.00,,---,0.00,VWS V12.07,2013-04-02 00:55:00,
2013-04-01 18:00:00,61.5,51.2,30.06,NW,315,5.0,11.0,69,0.00,,---,0.00,VWS V12.07,2013-04-02 01:00:00,
2013-04-01 18:10:00,61.3,51.5,30.06,NNE,31,4.0,9.0,70,0.00,,---,0.00,VWS V12.07,2013-04-02 01:10:00,
2013-04-01 18:15:00,60.9,51.1,30.06,NNW,336,11.0,12.0,70,0.00,,---,0.00,VWS V12.07,2013-04-02 01:15:00,
2013-04-01 18:20:00,60.4,51.0,30.06,West,275,2.0,7.0,71,0.00,,---,0.00,VWS V12.07,2013-04-02 01:20:00,
2013-04-01 18:25:00,60.1,51.1,30.06,NNE,26,8.0,12.0,72,0.00,,---,0.00,VWS V12.07,2013-04-02 01:25:00,
2013-04-01 18:30:00,59.8,51.1,30.06,NW,306,7.0,9.0,73,0.00,,---,0.00,VWS V12.07,2013-04-02 01:30:00,
2013-04-01 18:40:00,59.5,51.2,30.06,North,355,8.0,11.0,74,0.00,,---,0.00,VWS V12.07,2013-04-02 01:40:00,
2013-04-01 18:45:00,59.3,51.4,30.06,NNW,342,2.0,7.0,75,0.00,,---,0.00,VWS V12.07,2013-04-02 01:45:00,
2013-04-01 18:50:00,59.3,51.4,30.06,NNW,334,5.0,9.0,75,0.00,,---,0.00,VWS V12.07,2013-04-02 01:50:00,
2013-04-01 18:55:00,59.2,51.3,30.07,North,9,1.0,6.0,75,0.00,,---,0.00,VWS V12.07,2013-04-02 01:55:00,
2013-04-01 19:00:00,59.0,51.1,30.07,WSW,245,1.0,1.0,75,0.00,,---,0.00,VWS V12.07,2013-04-02 02:00:00,
2013-04-01 19:05:00,59.0,51.5,30.07,North,355,4.0,8.0,76,0.00,,---,0.00,VWS V12.07,2013-04-02 02:05:00,
2013-04-01 19:15:00,58.9,51.4,30.06,NW,308,0.0,5.0,76,0.00,,---,0.00,VWS V12.07,2013-04-02 02:15:00,
2013-04-01 19:20:00,58.9,51.4,30.06,NW,308,0.0,0.0,76,0.00,,---,0.00,VWS V12.07,2013-04-02 02:20:00,
2013-04-01 19:25:00,58.7,51.2,30.06,East,82,0.0,0.0,76,0.00,,---,0.00,VWS V12.07,2013-04-02 02:25:00,
2013-04-01 19:35:00,58.6,51.1,30.06,NW,306,0.0,1.0,76,0.00,,---,0.00,VWS V12.07,2013-04-02 02:35:00,
2013-04-01 19:40:00,58.4,50.9,30.06,NW,306,0.0,0.0,76,0.00,,---,0.00,VWS V12.07,2013-04-02 02:40:00,
2013-04-01 19:50:00,58.0,50.8,30.06,NW,306,0.0,0.0,77,0.00,,---,0.00,VWS V12.07,2013-04-02 02:50:00,
2013-04-01 19:55:00,58.0,50.8,30.06,NW,306,0.0,0.0,77,0.00,,---,0.00,VWS V12.07,2013-04-02 02:55:00,
2013-04-01 20:05:00,57.5,50.4,30.06,NW,306,0.0,0.0,77,0.00,,---,0.00,VWS V12.07,2013-04-02 03:05:00,
2013-04-01 20:10:00,57.3,50.5,30.06,NW,306,0.0,0.0,78,0.00,,---,0.00,VWS V12.07,2013-04-02 03:10:00,
2013-04-01 20:15:00,57.3,50.5,30.06,NW,306,0.0,3.0,78,0.00,,---,0.00,VWS V12.07,2013-04-02 03:15:00,
2013-04-01 20:20:00,57.3,50.5,30.06,NW,306,0.0,1.0,78,0.00,,---,0.00,VWS V12.07,2013-04-02 03:20:00,
2013-04-01 20:30:00,57.2,50.8,30.06,NNW,340,0.0,0.0,79,0.00,,---,0.00,VWS V12.07,2013-04-02 03:30:00,
2013-04-01 20:40:00,57.0,50.6,30.06,NNW,340,0.0,0.0,79,0.00,,---,0.00,VWS V12.07,2013-04-02 03:40:00,
2013-04-01 20:50:00,56.9,50.5,30.06,NNW,340,0.0,0.0,79,0.00,,---,0.00,VWS V12.07,2013-04-02 03:50:00,
2013-04-01 20:55:00,56.9,50.8,30.05,NNW,340,0.0,0.0,80,0.00,,---,0.00,VWS V12.07,2013-04-02 03:55:00,
2013-04-01 21:00:00,56.9,50.8,30.05,NNW,340,0.0,0.0,80,0.00,,---,0.00,VWS V12.07,2013-04-02 04:00:00,
2013-04-01 21:05:00,56.9,50.8,30.05,NNW,340,1.0,1.0,80,0.00,,---,0.00,VWS V12.07,2013-04-02 04:05:00,
2013-04-01 21:10:00,56.9,50.8,30.05,NNW,340,0.0,0.0,80,0.00,,---,0.00,VWS V12.07,2013-04-02 04:10:00,
2013-04-01 21:20:00,56.7,50.6,30.05,NNW,340,0.0,0.0,80,0.00,,---,0.00,VWS V12.07,2013-04-02 04:20:00,
2013-04-01 21:25:00,56.7,50.6,30.05,NNW,340,0.0,0.0,80,0.00,,---,0.00,VWS V12.07,2013-04-02 04:25:00,
2013-04-01 21:30:00,56.6,50.5,30.05,NNW,340,0.0,0.0,80,0.00,,---,0.00,VWS V12.07,2013-04-02 04:30:00,
2013-04-01 21:35:00,56.5,50.4,30.05,NNW,340,0.0,0.0,80,0.00,,---,0.00,VWS V12.07,2013-04-02 04:35:00,
2013-04-01 21:40:00,56.3,50.2,30.05,NNW,340,0.0,1.0,80,0.00,,---,0.00,VWS V12.07,2013-04-02 04:40:00,
2013-04-01 21:45:00,56.2,49.8,30.05,NNW,340,0.0,0.0,79,0.00,,---,0.00,VWS V12.07,2013-04-02 04:45:00,
2013-04-01 21:50:00,56.0,49.9,30.05,NNW,340,0.0,0.0,80,0.00,,---,0.00,VWS V12.07,2013-04-02 04:50:00,
2013-04-01 21:55:00,55.9,49.8,30.06,NNW,340,0.0,0.0,80,0.00,,---,0.00,VWS V12.07,2013-04-02 04:55:00,